| time (UTC) | temp C | wind direction | speed KPH | gust KPH | rain 1hr cm | rain 24hr cm | rain mn cm | humidity % | barometer mb |
| 20260510095139 | 13 | 140 | 3.2 | 6.4 | 0.00 | 0.00 | 0.00 | 86 | 1013.5 |
| 20260510094539 | 13 | 143 | 4.8 | 6.4 | 0.00 | 0.00 | 0.00 | 86 | 1013.5 |
| 20260510093908 | 13 | 144 | 1.6 | 3.2 | 0.00 | 0.00 | 0.00 | 87 | 1013.5 |
| 20260510093327 | 13 | 113 | 4.8 | 4.8 | 0.00 | 0.00 | 0.00 | 87 | 1013.5 |
| 20260510092725 | 13 | 142 | 3.2 | 4.8 | 0.00 | 0.00 | 0.00 | 86 | 1013.8 |
| 20260510092129 | 13 | 179 | 3.2 | 4.8 | 0.00 | 0.00 | 0.00 | 86 | 1013.5 |
| 20260510091537 | 13 | 162 | 3.2 | 6.4 | 0.00 | 0.00 | 0.00 | 86 | 1013.5 |
| 20260510090909 | 13 | 176 | 1.6 | 3.2 | 0.00 | 0.00 | 0.00 | 86 | 1013.5 |
| 20260510090341 | 13 | 173 | 3.2 | 4.8 | 0.00 | 0.00 | 0.00 | 86 | 1013.5 |
| 20260510085716 | 13 | 160 | 3.2 | 6.4 | 0.00 | 0.00 | 0.00 | 85 | 1013.5 |
| 20260510083948 | 13 | 129 | 3.2 | 4.8 | 0.00 | 0.00 | 0.00 | 86 | 1013.5 |
| 20260510083352 | 13 | 159 | 4.8 | 6.4 | 0.00 | 0.00 | 0.00 | 86 | 1013.2 |
| 20260510082744 | 13 | 149 | 3.2 | 4.8 | 0.00 | 0.00 | 0.00 | 86 | 1013.2 |
| 20260510082119 | 13 | 163 | 3.2 | 6.4 | 0.00 | 0.00 | 0.00 | 84 | 1013.2 |
| 20260510081549 | 13 | 195 | 3.2 | 6.4 | 0.00 | 0.00 | 0.00 | 84 | 1013.2 |
| 20260510080918 | 13 | 149 | 3.2 | 4.8 | 0.00 | 0.00 | 0.00 | 84 | 1013.2 |
| 20260510080327 | 13 | 186 | 4.8 | 4.8 | 0.00 | 0.00 | 0.00 | 84 | 1012.8 |
| 20260510075750 | 13 | 124 | 6.4 | 8.0 | 0.00 | 0.00 | 0.00 | 84 | 1013.2 |
| 20260510074542 | 13 | 213 | 1.6 | 3.2 | 0.00 | 0.00 | 0.00 | 85 | 1013.2 |
| 20260510073942 | 13 | 170 | 3.2 | 4.8 | 0.00 | 0.00 | 0.00 | 84 | 1012.8 |
| 20260510073347 | 13 | 122 | 0.0 | 3.2 | 0.00 | 0.00 | 0.00 | 84 | 1012.8 |
| 20260510072734 | 13 | 130 | 1.6 | 3.2 | 0.00 | 0.00 | 0.00 | 84 | 1013.2 |
| 20260510072126 | 14 | 196 | 0.0 | 6.4 | 0.00 | 0.00 | 0.00 | 84 | 1012.8 |
| 20260510071546 | 14 | 91 | 3.2 | 8.0 | 0.00 | 0.00 | 0.00 | 83 | 1013.2 |
| 20260510070925 | 14 | 180 | 3.2 | 6.4 | 0.00 | 0.00 | 0.00 | 84 | 1012.8 |
| 20260510070312 | 13 | 158 | 1.6 | 4.8 | 0.00 | 0.00 | 0.00 | 84 | 1013.2 |
| 20260510065734 | 14 | 171 | 0.0 | 6.4 | 0.00 | 0.00 | 0.00 | 84 | 1013.2 |
| 20260510065141 | 14 | 151 | 3.2 | 6.4 | 0.00 | 0.00 | 0.00 | 83 | 1012.8 |
| 20260510063923 | 14 | 135 | 3.2 | 9.7 | 0.00 | 0.00 | 0.00 | 82 | 1013.2 |
| 20260510063330 | 14 | 111 | 4.8 | 9.7 | 0.00 | 0.00 | 0.00 | 82 | 1013.2 |
| 20260510062709 | 14 | 191 | 3.2 | 6.4 | 0.00 | 0.00 | 0.00 | 82 | 1013.2 |
| 20260510062146 | 14 | 192 | 8.0 | 9.7 | 0.00 | 0.00 | 0.00 | 82 | 1012.8 |
| 20260510061534 | 14 | 162 | 1.6 | 6.4 | 0.00 | 0.00 | 0.00 | 82 | 1013.2 |
| 20260510060949 | 14 | 204 | 3.2 | 6.4 | 0.00 | 0.00 | 0.00 | 82 | 1013.2 |
| 20260510060341 | 15 | 200 | 6.4 | 6.4 | 0.00 | 0.00 | 0.00 | 82 | 1013.2 |
| 20260510055725 | 15 | 155 | 6.4 | 8.0 | 0.00 | 0.00 | 0.00 | 81 | 1013.2 |
| 20260510055118 | 15 | 115 | 4.8 | 9.7 | 0.00 | 0.00 | 0.00 | 80 | 1012.8 |
| 20260510054538 | 15 | 214 | 4.8 | 9.7 | 0.00 | 0.00 | 0.00 | 80 | 1013.2 |
| 20260510053314 | 15 | 171 | 9.7 | 12.9 | 0.00 | 0.00 | 0.00 | 80 | 1013.2 |
| 20260510052149 | 15 | 165 | 12.9 | 12.9 | 0.00 | 0.00 | 0.00 | 80 | 1013.5 |
| 20260510051548 | 15 | 130 | 6.4 | 12.9 | 0.00 | 0.00 | 0.00 | 80 | 1013.2 |
| 20260510050912 | 15 | 139 | 4.8 | 9.7 | 0.00 | 0.00 | 0.00 | 80 | 1013.5 |
| 20260510050332 | 15 | 179 | 9.7 | 12.9 | 0.00 | 0.00 | 0.00 | 79 | 1013.2 |
| 20260510045721 | 15 | 159 | 8.0 | 14.5 | 0.00 | 0.00 | 0.00 | 79 | 1013.2 |
| 20260510045110 | 15 | 180 | 4.8 | 16.1 | 0.00 | 0.00 | 0.00 | 79 | 1013.2 |
| 20260510043931 | 15 | 172 | 3.2 | 12.9 | 0.00 | 0.00 | 0.00 | 79 | 1013.2 |
| 20260510043338 | 15 | 137 | 11.3 | 14.5 | 0.00 | 0.00 | 0.00 | 79 | 1013.2 |
| 20260510042711 | 15 | 198 | 16.1 | 17.7 | 0.00 | 0.00 | 0.00 | 78 | 1013.2 |
| 20260510042145 | 15 | 168 | 8.0 | 9.7 | 0.00 | 0.00 | 0.00 | 78 | 1013.5 |
| 20260510041533 | 15 | 183 | 4.8 | 16.1 | 0.00 | 0.00 | 0.00 | 78 | 1013.2 |
| 20260510040924 | 15 | 183 | 11.3 | 12.9 | 0.00 | 0.00 | 0.00 | 78 | 1013.2 |
| 20260510040343 | 15 | 193 | 6.4 | 12.9 | 0.00 | 0.00 | 0.23 | 78 | 1013.2 |
| 20260510035747 | 15 | 178 | 11.3 | 12.9 | 0.00 | 0.00 | 0.23 | 77 | 1013.2 |
| 20260510035123 | 15 | 225 | 11.3 | 17.7 | 0.00 | 0.00 | 0.23 | 77 | 1013.2 |
| 20260510034541 | 15 | 195 | 6.4 | 12.9 | 0.00 | 0.00 | 0.23 | 77 | 1013.2 |
| 20260510033909 | 15 | 226 | 1.6 | 6.4 | 0.00 | 0.00 | 0.23 | 77 | 1012.8 |
| 20260510033316 | 16 | 164 | 4.8 | 12.9 | 0.00 | 0.00 | 0.23 | 76 | 1012.8 |
| 20260510032752 | 16 | 218 | 8.0 | 12.9 | 0.00 | 0.00 | 0.23 | 76 | 1012.8 |
| 20260510032147 | 16 | 169 | 6.4 | 12.9 | 0.00 | 0.00 | 0.23 | 75 | 1012.8 |
| 20260510031524 | 15 | 185 | 4.8 | 9.7 | 0.00 | 0.00 | 0.23 | 76 | 1012.8 |
| 20260510030919 | 16 | 171 | 4.8 | 9.7 | 0.00 | 0.00 | 0.23 | 76 | 1012.5 |
| 20260510030328 | 16 | 217 | 6.4 | 8.0 | 0.00 | 0.00 | 0.23 | 75 | 1012.5 |
| 20260510025732 | 16 | 231 | 4.8 | 17.7 | 0.00 | 0.00 | 0.23 | 74 | 1012.8 |
| 20260510025122 | 16 | 166 | 4.8 | 17.7 | 0.00 | 0.00 | 0.23 | 74 | 1012.5 |
| 20260510023940 | 16 | 175 | 3.2 | 6.4 | 0.00 | 0.00 | 0.23 | 74 | 1012.5 |
| 20260510022739 | 16 | 132 | 4.8 | 9.7 | 0.00 | 0.00 | 0.23 | 73 | 1012.5 |
| 20260510021510 | 16 | 136 | 6.4 | 8.0 | 0.00 | 0.00 | 0.23 | 73 | 1012.5 |
| 20260510020952 | 16 | 219 | 9.7 | 9.7 | 0.00 | 0.00 | 0.23 | 73 | 1012.5 |
| 20260510015740 | 16 | 124 | 9.7 | 12.9 | 0.00 | 0.00 | 0.23 | 72 | 1012.5 |
| 20260510015143 | 16 | 180 | 6.4 | 6.4 | 0.00 | 0.00 | 0.23 | 72 | 1012.1 |
| 20260510014511 | 16 | 111 | 6.4 | 9.7 | 0.00 | 0.00 | 0.23 | 71 | 1012.1 |
| 20260510013946 | 16 | 172 | 4.8 | 8.0 | 0.00 | 0.00 | 0.23 | 71 | 1011.8 |
| 20260510012725 | 17 | 162 | 3.2 | 12.9 | 0.00 | 0.00 | 0.23 | 71 | 1011.8 |
| 20260510012131 | 17 | 173 | 6.4 | 9.7 | 0.00 | 0.00 | 0.23 | 70 | 1011.8 |
| 20260510011556 | 17 | 189 | 6.4 | 8.0 | 0.00 | 0.00 | 0.23 | 69 | 1011.5 |
| 20260510010951 | 17 | 125 | 3.2 | 8.0 | 0.00 | 0.00 | 0.23 | 69 | 1011.5 |
| 20260510010348 | 17 | 126 | 1.6 | 6.4 | 0.00 | 0.00 | 0.23 | 69 | 1011.5 |
| 20260510005143 | 17 | 161 | 3.2 | 6.4 | 0.00 | 0.00 | 0.23 | 68 | 1011.1 |
| 20260510004550 | 17 | 127 | 6.4 | 6.4 | 0.00 | 0.00 | 0.23 | 67 | 1011.1 |
| 20260510003307 | 17 | 180 | 4.8 | 9.7 | 0.00 | 0.00 | 0.23 | 68 | 1011.1 |
| 20260510002716 | 17 | 117 | 3.2 | 8.0 | 0.00 | 0.00 | 0.23 | 67 | 1011.1 |
| 20260510001511 | 18 | 171 | 6.4 | 8.0 | 0.00 | 0.00 | 0.23 | 66 | 1011.1 |
| 20260510000943 | 18 | 231 | 3.2 | 8.0 | 0.00 | 0.00 | 0.23 | 65 | 1011.1 |
| 20260510000349 | 18 | 192 | 9.7 | 17.7 | 0.00 | 0.00 | 0.23 | 64 | 1011.1 |
| 20260509235710 | 18 | 182 | 6.4 | 9.7 | 0.00 | 0.00 | 0.23 | 63 | 1011.1 |
| 20260509235126 | 18 | 177 | 4.8 | 11.3 | 0.00 | 0.00 | 0.23 | 63 | 1010.8 |
| 20260509234543 | 18 | 187 | 3.2 | 9.7 | 0.00 | 0.00 | 0.23 | 62 | 1010.8 |
| 20260509233949 | 18 | 167 | 12.9 | 14.5 | 0.00 | 0.00 | 0.23 | 62 | 1011.1 |
| 20260509233339 | 18 | 176 | 12.9 | 16.1 | 0.00 | 0.00 | 0.23 | 61 | 1010.8 |
| 20260509232130 | 19 | 143 | 4.8 | 8.0 | 0.00 | 0.00 | 0.23 | 61 | 1011.1 |
| 20260509231509 | 19 | 251 | 0.0 | 4.8 | 0.00 | 0.00 | 0.23 | 63 | 1010.8 |
| 20260509230951 | 19 | 176 | 4.8 | 9.7 | 0.00 | 0.00 | 0.23 | 60 | 1010.8 |
| 20260509230332 | 19 | 234 | 3.2 | 14.5 | 0.00 | 0.00 | 0.23 | 60 | 1010.8 |
| 20260509225146 | 20 | 211 | 9.7 | 14.5 | 0.00 | 0.00 | 0.23 | 58 | 1010.8 |
| 20260509224535 | 20 | 164 | 8.0 | 11.3 | 0.00 | 0.00 | 0.23 | 58 | 1010.8 |
| 20260509223928 | 20 | 180 | 9.7 | 12.9 | 0.00 | 0.00 | 0.23 | 60 | 1010.8 |
| 20260509223343 | 19 | 188 | 9.7 | 17.7 | 0.00 | 0.00 | 0.23 | 61 | 1011.1 |
| 20260509222130 | 19 | 180 | 9.7 | 27.4 | 0.00 | 0.00 | 0.23 | 60 | 1011.1 |
| 20260509220917 | 20 | 196 | 6.4 | 12.9 | 0.00 | 0.00 | 0.23 | 58 | 1011.5 |
| 20260509220325 | 20 | 194 | 0.0 | 12.9 | 0.00 | 0.00 | 0.23 | 61 | 1011.1 |
| 20260509215723 | 20 | 199 | 9.7 | 12.9 | 0.00 | 0.00 | 0.23 | 58 | 1011.1 |
| 20260509215134 | 20 | 177 | 12.9 | 14.5 | 0.00 | 0.00 | 0.23 | 59 | 1011.1 |
| 20260509214520 | 20 | 184 | 4.8 | 14.5 | 0.00 | 0.00 | 0.23 | 59 | 1011.1 |
| 20260509213334 | 20 | 250 | 8.0 | 17.7 | 0.00 | 0.00 | 0.23 | 63 | 1011.1 |
| 20260509212738 | 20 | 173 | 17.7 | 19.3 | 0.00 | 0.00 | 0.23 | 59 | 1011.1 |
| 20260509212145 | 20 | 196 | 0.0 | 11.3 | 0.00 | 0.00 | 0.23 | 59 | 1011.1 |
| 20260509211542 | 19 | 199 | 4.8 | 14.5 | 0.00 | 0.00 | 0.23 | 62 | 1011.1 |
| 20260509210931 | 18 | 162 | 11.3 | 14.5 | 0.00 | 0.00 | 0.23 | 62 | 1011.1 |
| 20260509210318 | 20 | 258 | 1.6 | 9.7 | 0.00 | 0.00 | 0.23 | 63 | 1011.1 |
| 20260509205747 | 20 | 180 | 6.4 | 20.9 | 0.00 | 0.00 | 0.23 | 61 | 1011.1 |
| 20260509205134 | 20 | 151 | 11.3 | 17.7 | 0.00 | 0.00 | 0.23 | 60 | 1011.1 |
| 20260509204537 | 20 | 244 | 3.2 | 8.0 | 0.00 | 0.00 | 0.23 | 60 | 1011.5 |
| 20260509203950 | 20 | 256 | 4.8 | 19.3 | 0.00 | 0.00 | 0.23 | 60 | 1011.1 |
| 20260509203321 | 18 | 145 | 17.7 | 19.3 | 0.00 | 0.00 | 0.23 | 62 | 1011.1 |
| 20260509202753 | 18 | 191 | 9.7 | 16.1 | 0.00 | 0.00 | 0.23 | 63 | 1011.1 |
| 20260509202126 | 20 | 197 | 14.5 | 19.3 | 0.00 | 0.00 | 0.23 | 59 | 1011.5 |
| 20260509201532 | 20 | 173 | 11.3 | 16.1 | 0.00 | 0.00 | 0.23 | 64 | 1011.5 |
| 20260509200939 | 18 | 191 | 20.9 | 20.9 | 0.00 | 0.00 | 0.23 | 63 | 1011.5 |
| 20260509200309 | 18 | 217 | 6.4 | 14.5 | 0.00 | 0.00 | 0.23 | 65 | 1011.5 |
| 20260509195125 | 19 | 169 | 4.8 | 14.5 | 0.00 | 0.00 | 0.23 | 64 | 1011.8 |
| 20260509193915 | 18 | 153 | 16.1 | 22.5 | 0.00 | 0.00 | 0.23 | 64 | 1011.8 |
| 20260509193337 | 18 | 173 | 6.4 | 24.1 | 0.00 | 0.00 | 0.23 | 65 | 1011.8 |
| 20260509192748 | 18 | 155 | 8.0 | 16.1 | 0.00 | 0.00 | 0.23 | 65 | 1011.8 |
| 20260509191527 | 18 | 165 | 8.0 | 20.9 | 0.00 | 0.00 | 0.23 | 64 | 1011.8 |
| 20260509190313 | 18 | 164 | 4.8 | 17.7 | 0.00 | 0.00 | 0.23 | 65 | 1011.5 |
| 20260509185750 | 18 | 179 | 8.0 | 11.3 | 0.00 | 0.00 | 0.23 | 67 | 1011.5 |
| 20260509185114 | 18 | 160 | 4.8 | 6.4 | 0.00 | 0.00 | 0.23 | 66 | 1011.8 |
| 20260509184531 | 17 | 224 | 6.4 | 16.1 | 0.00 | 0.00 | 0.23 | 66 | 1011.5 |
| 20260509183936 | 17 | 180 | 6.4 | 11.3 | 0.00 | 0.00 | 0.23 | 67 | 1011.5 |
| 20260509183343 | 16 | 244 | 3.2 | 12.9 | 0.00 | 0.00 | 0.23 | 67 | 1011.8 |
| 20260509182727 | 16 | 180 | 11.3 | 16.1 | 0.00 | 0.00 | 0.23 | 66 | 1011.8 |
| 20260509182153 | 16 | 156 | 8.0 | 14.5 | 0.00 | 0.00 | 0.23 | 68 | 1011.8 |
| 20260509181515 | 16 | 176 | 8.0 | 12.9 | 0.00 | 0.00 | 0.23 | 68 | 1011.8 |
| 20260509180942 | 16 | 166 | 12.9 | 12.9 | 0.00 | 0.00 | 0.23 | 73 | 1011.8 |
| 20260509180315 | 16 | 126 | 6.4 | 16.1 | 0.00 | 0.00 | 0.23 | 72 | 1011.8 |
| 20260509175737 | 16 | 24 | 3.2 | 8.0 | 0.00 | 0.00 | 0.23 | 73 | 1011.8 |
| 20260509175152 | 16 | 139 | 6.4 | 16.1 | 0.00 | 0.00 | 0.23 | 71 | 1011.8 |
| 20260509174526 | 16 | 151 | 11.3 | 19.3 | 0.00 | 0.00 | 0.23 | 74 | 1011.8 |
| 20260509173310 | 15 | 137 | 11.3 | 14.5 | 0.00 | 0.00 | 0.23 | 81 | 1011.8 |
| 20260509172726 | 15 | 132 | 3.2 | 8.0 | 0.00 | 0.00 | 0.23 | 82 | 1011.8 |
| 20260509171510 | 14 | 100 | 4.8 | 8.0 | 0.00 | 0.00 | 0.23 | 85 | 1011.8 |
| 20260509170921 | 13 | 163 | 3.2 | 9.7 | 0.00 | 0.00 | 0.23 | 86 | 1012.1 |
| 20260509170323 | 13 | 135 | 11.3 | 11.3 | 0.00 | 0.00 | 0.23 | 87 | 1012.1 |
| 20260509165719 | 13 | 145 | 4.8 | 9.7 | 0.00 | 0.00 | 0.23 | 89 | 1012.1 |
| 20260509165132 | 13 | 37 | 1.6 | 8.0 | 0.00 | 0.00 | 0.20 | 92 | 1012.1 |
| 20260509164539 | 13 | 180 | 4.8 | 8.0 | 0.00 | 0.00 | 0.20 | 92 | 1012.5 |
| 20260509163934 | 13 | 201 | 3.2 | 8.0 | 0.00 | 0.00 | 0.20 | 93 | 1012.5 |
| 20260509162115 | 13 | 219 | 3.2 | 4.8 | 0.00 | 0.00 | 0.20 | 93 | 1012.1 |
| 20260509161540 | 13 | 135 | 3.2 | 6.4 | 0.00 | 0.00 | 0.20 | 93 | 1012.1 |
| 20260509160930 | 13 | 134 | 3.2 | 4.8 | 0.00 | 0.00 | 0.20 | 93 | 1012.1 |
| 20260509160345 | 13 | 156 | 0.0 | 3.2 | 0.00 | 0.00 | 0.20 | 93 | 1012.1 |
| 20260509155716 | 13 | 217 | 1.6 | 3.2 | 0.00 | 0.00 | 0.20 | 93 | 1012.1 |
| 20260509154540 | 13 | 126 | 3.2 | 6.4 | 0.00 | 0.00 | 0.20 | 94 | 1012.1 |
| 20260509153940 | 13 | 118 | 3.2 | 4.8 | 0.00 | 0.00 | 0.20 | 94 | 1011.8 |
| 20260509153324 | 13 | 92 | 3.2 | 11.3 | 0.00 | 0.00 | 0.20 | 95 | 1011.8 |
| 20260509152127 | 13 | 113 | 3.2 | 4.8 | 0.00 | 0.00 | 0.20 | 96 | 1012.1 |
| 20260509150915 | 13 | 19 | 4.8 | 4.8 | 0.00 | 0.00 | 0.20 | 96 | 1011.8 |
| 20260509150315 | 13 | 43 | 1.6 | 3.2 | 0.00 | 0.00 | 0.20 | 97 | 1011.8 |
| 20260509145740 | 13 | 24 | 4.8 | 4.8 | 0.00 | 0.00 | 0.20 | 97 | 1011.8 |
| 20260509145127 | 13 | 38 | 3.2 | 4.8 | 0.00 | 0.00 | 0.20 | 97 | 1012.1 |
| 20260509144508 | 13 | 93 | 0.0 | 4.8 | 0.00 | 0.00 | 0.20 | 97 | 1012.1 |
| 20260509143907 | 13 | 31 | 3.2 | 4.8 | 0.00 | 0.00 | 0.20 | 97 | 1012.1 |
| 20260509142746 | 12 | 21 | 3.2 | 4.8 | 0.00 | 0.00 | 0.20 | 97 | 1012.1 |
| 20260509141517 | 12 | 28 | 0.0 | 0.0 | 0.00 | 0.00 | 0.20 | 97 | 1012.5 |
| 20260509140924 | 12 | 25 | 3.2 | 4.8 | 0.00 | 0.00 | 0.20 | 97 | 1012.5 |
| 20260509140344 | 12 | 23 | 3.2 | 3.2 | 0.00 | 0.00 | 0.18 | 97 | 1012.1 |
| 20260509135710 | 12 | 109 | 0.0 | 3.2 | 0.00 | 0.00 | 0.18 | 97 | 1012.1 |
| 20260509135112 | 12 | 51 | 0.0 | 3.2 | 0.00 | 0.00 | 0.18 | 97 | 1012.1 |
| 20260509134545 | 12 | 28 | 4.8 | 4.8 | 0.00 | 0.00 | 0.18 | 98 | 1012.1 |
| 20260509133914 | 12 | 25 | 4.8 | 4.8 | 0.00 | 0.00 | 0.18 | 98 | 1012.1 |
| 20260509132743 | 11 | 297 | 0.0 | 6.4 | 0.00 | 0.00 | 0.18 | 99 | 1012.1 |
| 20260509132132 | 11 | 37 | 0.0 | 3.2 | 0.00 | 0.00 | 0.18 | 99 | 1012.5 |
| 20260509131511 | 11 | 37 | 3.2 | 6.4 | 0.00 | 0.00 | 0.18 | 99 | 1012.1 |
| 20260509130917 | 11 | 82 | 1.6 | 3.2 | 0.00 | 0.00 | 0.18 | 99 | 1012.5 |
| 20260509130311 | 11 | 88 | 1.6 | 4.8 | 0.00 | 0.00 | 0.18 | 99 | 1012.5 |
| 20260509125721 | 11 | 23 | 1.6 | 3.2 | 0.00 | 0.00 | 0.18 | 99 | 1012.8 |
| 20260509125123 | 11 | 85 | 0.0 | 3.2 | 0.00 | 0.00 | 0.15 | 99 | 1012.8 |
| 20260509123935 | 11 | 141 | 3.2 | 3.2 | 0.00 | 0.00 | 0.15 | 99 | 1012.8 |
| 20260509123351 | 11 | 26 | 0.0 | 0.0 | 0.00 | 0.00 | 0.15 | 99 | 1012.5 |
| 20260509122746 | 11 | 152 | 1.6 | 3.2 | 0.00 | 0.00 | 0.15 | 99 | 1012.5 |
| 20260509122142 | 11 | 27 | 3.2 | 4.8 | 0.00 | 0.00 | 0.15 | 99 | 1012.5 |
| 20260509121510 | 11 | 26 | 6.4 | 6.4 | 0.00 | 0.00 | 0.15 | 99 | 1012.5 |
| 20260509120914 | 10 | 38 | 6.4 | 6.4 | 0.00 | 0.00 | 0.15 | 99 | 1012.8 |
| 20260509120320 | 10 | 76 | 3.2 | 6.4 | 0.00 | 0.00 | 0.15 | 99 | 1012.8 |
| 20260509115739 | 10 | 43 | 6.4 | 8.0 | 0.00 | 0.00 | 0.15 | 99 | 1012.8 |
| 20260509115121 | 10 | 34 | 6.4 | 6.4 | 0.00 | 0.00 | 0.15 | 99 | 1012.5 |
| 20260509113926 | 10 | 43 | 6.4 | 6.4 | 0.00 | 0.00 | 0.15 | 99 | 1012.5 |
| 20260509113325 | 10 | 48 | 4.8 | 6.4 | 0.00 | 0.00 | 0.15 | 99 | 1012.5 |
| 20260509112131 | 10 | 42 | 3.2 | 4.8 | 0.00 | 0.00 | 0.13 | 99 | 1012.5 |
| 20260509110934 | 10 | 23 | 3.2 | 4.8 | 0.00 | 0.00 | 0.10 | 98 | 1012.5 |
| 20260509110313 | 10 | 44 | 4.8 | 4.8 | 0.00 | 0.00 | 0.10 | 98 | 1012.5 |
| 20260509104545 | 10 | 14 | 3.2 | 6.4 | 0.00 | 0.00 | 0.08 | 97 | 1012.1 |
| 20260509103940 | 10 | 27 | 3.2 | 3.2 | 0.00 | 0.00 | 0.08 | 96 | 1012.5 |
| 20260509103313 | 10 | 10 | 3.2 | 3.2 | 0.00 | 0.00 | 0.08 | 96 | 1012.5 |
| 20260509102735 | 10 | 23 | 0.0 | 4.8 | 0.00 | 0.00 | 0.05 | 94 | 1012.5 |
| 20260509102123 | 11 | 15 | 0.0 | 3.2 | 0.00 | 0.00 | 0.05 | 94 | 1012.5 |
| 20260509101514 | 11 | 30 | 3.2 | 4.8 | 0.00 | 0.00 | 0.05 | 93 | 1012.1 |
| 20260509100920 | 11 | 37 | 1.6 | 6.4 | 0.00 | 0.00 | 0.05 | 91 | 1012.1 |
| 20260509100325 | 11 | 34 | 3.2 | 6.4 | 0.00 | 0.00 | 0.05 | 91 | 1012.1 |
| 20260509095736 | 10 | 70 | 1.6 | 4.8 | 0.00 | 0.00 | 0.05 | 94 | 1012.1 |